CW7520 Weather Reports


Display with metric or nautical units.
time (UTC)temp
F
wind
direction
speed
MPH
gust
MPH
rain 1hr
in
rain 24hr
in
rain mn
in
humidity
%
barometer
mb
20260905103609 56 0 0.0 0.0 0.00 0.09 0.08 69 1009.3
20260905102704 56 0 0.0 0.0 0.00 0.09 0.08 69 1009.2
20260905101809 56 0 0.0 0.0 0.00 0.09 0.08 69 1009.0
20260905100913 56 0 0.0 0.0 0.00 0.10 0.08 69 1008.8
20260905100004 56 0 0.0 0.0 0.00 0.11 0.08 69 1008.6
20260905095403 56 0 0.0 0.0 0.00 0.11 0.08 69 1008.5
20260905094508 56 0 0.0 0.0 0.00 0.11 0.08 69 1008.4
20260905093603 56 0 0.0 0.0 0.00 0.11 0.08 70 1008.1
20260905092708 56 0 0.0 0.0 0.00 0.11 0.08 70 1007.7
20260905091808 56 0 0.0 0.0 0.00 0.11 0.08 70 1007.5
20260905090909 56 0 0.0 0.0 0.00 0.11 0.08 72 1007.4
20260905090004 55 0 0.0 0.0 0.00 0.11 0.08 74 1007.3
20260905085408 55 0 0.0 0.0 0.00 0.11 0.08 76 1007.2
20260905084508 55 0 0.0 0.0 0.00 0.11 0.08 76 1007.1
20260905083603 55 0 0.0 0.0 0.00 0.11 0.08 76 1006.8
20260905082913 56 0 0.0 0.0 0.00 0.11 0.08 76 1006.6
20260905081808 56 0 0.0 0.0 0.00 0.11 0.08 75 1006.6
20260905081118 56 0 0.0 0.0 0.00 0.11 0.08 75 1006.6
20260905080013 56 0 0.0 0.0 0.02 0.11 0.08 74 1006.2
20260905075404 57 0 0.0 0.0 0.02 0.11 0.08 73 1006.1
20260905074513 58 0 0.0 0.0 0.02 0.11 0.08 73 1006.1
20260905073613 59 0 0.0 0.0 0.02 0.11 0.08 73 1006.2
20260905072703 60 0 0.0 0.0 0.02 0.11 0.08 74 1005.8
20260905072018 60 0 0.0 0.0 0.02 0.11 0.08 72 1005.4
20260905070903 61 0 0.0 0.0 0.02 0.11 0.08 70 1005.0
20260905070004 62 0 0.0 0.0 0.00 0.09 0.06 65 1004.7
20260905065413 62 0 0.0 0.0 0.00 0.09 0.06 62 1004.5
20260905064504 62 0 0.0 0.0 0.00 0.09 0.06 62 1004.2
20260905063604 64 0 0.0 0.0 0.00 0.09 0.06 62 1004.4
20260905062708 65 0 0.0 0.0 0.00 0.09 0.06 55 1004.2
20260905061808 66 0 0.0 0.0 0.00 0.09 0.06 51 1004.1
20260905060908 66 0 0.0 0.0 0.00 0.09 0.06 48 1004.1
20260905060003 66 0 0.0 0.0 0.00 0.09 0.06 50 1004.0
20260905055408 66 0 0.0 0.0 0.00 0.09 0.06 49 1004.0
20260905054508 66 0 0.0 0.0 0.00 0.09 0.06 46 1004.1
20260905053608 67 0 0.0 0.0 0.00 0.09 0.06 46 1003.8
20260905052713 67 0 0.0 0.0 0.00 0.09 0.06 46 1003.9
20260905052019 68 0 0.0 0.0 0.00 0.09 0.06 45 1003.7
20260905050908 68 0 0.0 0.0 0.00 0.09 0.06 47 1003.4
20260905050008 68 0 0.0 0.0 0.00 0.09 0.06 47 1003.3
20260905045614 68 0 0.0 0.0 0.00 0.09 0.06 46 1003.3
20260905044504 68 0 0.0 0.0 0.00 0.09 0.06 44 1003.4
20260905043608 68 0 0.0 0.0 0.00 0.09 0.06 45 1003.3
20260905042709 67 0 0.0 0.0 0.00 0.09 0.06 46 1003.3
20260905041803 67 0 0.0 0.0 0.00 0.09 0.06 47 1003.1
20260905040905 67 0 0.0 0.0 0.00 0.09 0.06 50 1003.2
20260905040008 67 0 0.0 0.0 0.00 0.09 0.06 49 1003.1
20260905035615 67 0 0.0 0.0 0.00 0.09 0.06 49 1003.2
20260905034510 68 0 0.0 0.0 0.00 0.09 0.06 49 1003.1
20260905033603 68 0 0.0 0.0 0.00 0.09 0.06 47 1003.0
20260905032704 69 0 0.0 0.0 0.00 0.09 0.06 46 1003.0
20260905031808 69 0 0.0 0.0 0.00 0.09 0.06 45 1003.2
20260905030904 70 0 0.0 0.0 0.00 0.09 0.06 44 1003.3
20260905030004 70 0 0.0 0.0 0.00 0.09 0.06 47 1003.5
20260905025409 70 0 0.0 0.0 0.00 0.09 0.06 50 1003.5
20260905024503 70 0 0.0 0.0 0.00 0.09 0.06 49 1003.5
20260905023610 71 0 0.0 0.0 0.00 0.09 0.06 51 1003.3
20260905022704 70 0 0.0 0.0 0.00 0.09 0.06 49 1003.6
20260905021806 70 0 0.0 0.0 0.00 0.09 0.06 50 1003.5
20260905020910 69 0 0.0 0.0 0.00 0.09 0.06 54 1003.6
20260905020008 68 0 0.0 0.0 0.00 0.09 0.06 55 1003.8
20260905015408 68 0 0.0 0.0 0.00 0.09 0.06 57 1004.0
20260905014503 67 0 0.0 0.0 0.00 0.09 0.06 58 1003.8
20260905013603 67 0 0.0 0.0 0.00 0.09 0.06 61 1004.0
20260905012710 66 0 0.0 0.0 0.00 0.09 0.06 66 1004.1
20260905011805 65 0 0.0 0.0 0.00 0.09 0.06 70 1004.2
20260905010905 64 0 0.0 0.0 0.00 0.09 0.06 72 1004.2
20260905010008 63 0 0.0 0.0 0.00 0.09 0.06 74 1004.3
20260905005624 63 0 0.0 0.0 0.00 0.09 0.06 75 1004.3
20260905004508 62 0 0.0 0.0 0.00 0.09 0.06 77 1004.4
20260905003603 62 0 0.0 0.0 0.00 0.09 0.06 78 1004.4
20260905002914 61 0 0.0 0.0 0.00 0.09 0.06 79 1004.4
20260905001813 61 0 0.0 0.0 0.00 0.09 0.06 79 1004.3
20260905001115 61 0 0.0 0.0 0.00 0.09 0.06 79 1004.4
20260905000214 61 0 0.0 0.0 0.00 0.09 0.06 78 1004.8
20260904235404 60 0 0.0 0.0 0.00 0.09 0.06 78 1004.7
20260904234505 60 0 0.0 0.0 0.00 0.09 0.06 78 1004.6
20260904233603 60 0 0.0 0.0 0.00 0.09 0.06 80 1004.5
20260904232705 59 0 0.0 0.0 0.00 0.09 0.06 80 1004.4
20260904232015 59 0 0.0 0.0 0.00 0.09 0.06 81 1004.6
20260904230903 59 0 0.0 0.0 0.00 0.09 0.06 82 1004.7
20260904230012 59 0 0.0 0.0 0.00 0.09 0.06 83 1004.4
20260904225619 59 0 0.0 0.0 0.00 0.09 0.06 82 1004.5
20260904224509 58 0 0.0 0.0 0.00 0.09 0.06 83 1004.5
20260904223608 58 0 0.0 0.0 0.01 0.09 0.06 83 1004.4
20260904222703 58 0 0.0 0.0 0.01 0.09 0.06 84 1004.9
20260904221804 58 0 0.0 0.0 0.01 0.09 0.06 85 1004.8
20260904221114 58 0 0.0 0.0 0.02 0.09 0.06 85 1004.6
20260904220008 57 0 0.0 0.0 0.02 0.09 0.06 86 1004.6
20260904215403 57 0 0.0 0.0 0.03 0.09 0.06 86 1004.8
20260904214719 57 0 0.0 0.0 0.03 0.09 0.06 86 1004.5
20260904213605 57 0 0.0 0.0 0.02 0.09 0.06 85 1004.2
20260904212705 57 0 0.0 0.0 0.03 0.09 0.06 84 1004.3
20260904211805 58 0 0.0 0.0 0.03 0.09 0.06 84 1004.9
20260904210905 58 0 0.0 0.0 0.02 0.08 0.05 83 1005.6
20260904210008 58 0 0.0 0.0 0.02 0.07 0.04 82 1006.2
20260904205405 59 0 0.0 0.0 0.01 0.06 0.03 81 1006.5
20260904204505 59 0 0.0 0.0 0.01 0.06 0.03 80 1006.4
20260904203816 59 0 0.0 0.0 0.01 0.06 0.03 79 1006.3
20260904202705 59 0 0.0 0.0 0.00 0.06 0.02 78 1006.6
20260904201805 59 0 0.0 0.0 0.00 0.06 0.02 78 1006.3
20260904200903 59 0 0.0 0.0 0.00 0.06 0.02 79 1006.4
20260904200219 59 0 0.0 0.0 0.00 0.06 0.02 79 1006.2
20260904195403 59 0 0.0 0.0 0.00 0.06 0.02 79 1006.2
20260904194504 59 0 0.0 0.0 0.00 0.06 0.02 79 1006.2
20260904193605 59 0 0.0 0.0 0.00 0.06 0.02 80 1006.2
20260904192704 59 0 0.0 0.0 0.01 0.06 0.02 80 1006.5
20260904192016 59 0 0.0 0.0 0.01 0.06 0.02 80 1006.6
20260904190904 59 0 0.0 0.0 0.01 0.06 0.02 80 1006.7
20260904190004 59 0 0.0 0.0 0.01 0.06 0.02 79 1007.0
20260904185403 59 0 0.0 0.0 0.01 0.06 0.02 80 1006.9
20260904184504 59 0 0.0 0.0 0.01 0.06 0.02 80 1007.0
20260904183605 59 0 0.0 0.0 0.01 0.06 0.02 80 1007.1
20260904182705 59 0 0.0 0.0 0.00 0.05 0.02 80 1007.4
20260904181805 59 0 0.0 0.0 0.00 0.05 0.02 80 1007.2
20260904180904 59 0 0.0 0.0 0.00 0.05 0.02 81 1006.9
20260904180005 59 0 0.0 0.0 0.00 0.05 0.02 81 1006.6
20260904175405 59 0 0.0 0.0 0.00 0.05 0.02 81 1006.6
20260904174505 59 0 0.0 0.0 0.00 0.05 0.02 81 1006.8
20260904173604 59 0 0.0 0.0 0.00 0.05 0.02 81 1006.8
20260904172704 59 0 0.0 0.0 0.00 0.05 0.02 80 1006.9
20260904172015 59 0 0.0 0.0 0.00 0.05 0.02 80 1007.4
20260904170903 59 0 0.0 0.0 0.01 0.05 0.02 80 1007.8
20260904170005 59 0 0.0 0.0 0.02 0.05 0.02 81 1008.0
20260904165404 59 0 0.0 0.0 0.02 0.05 0.02 81 1008.5
20260904164714 59 0 0.0 0.0 0.02 0.05 0.02 81 1008.9
20260904163603 59 0 0.0 0.0 0.02 0.05 0.02 81 1008.7
20260904162703 59 0 0.0 0.0 0.02 0.05 0.02 80 1008.7
20260904161805 60 0 0.0 0.0 0.02 0.05 0.02 79 1009.2
20260904160905 60 0 0.0 0.0 0.01 0.04 0.01 77 1009.4
20260904160004 61 0 0.0 0.0 0.00 0.03 0.00 74 1009.7
20260904155404 61 0 0.0 0.0 0.00 0.03 0.00 74 1009.9
20260904154504 61 0 0.0 0.0 0.00 0.03 0.00 73 1009.9
20260904153605 61 0 0.0 0.0 0.00 0.03 0.00 73 1010.0
20260904152704 60 0 0.0 0.0 0.00 0.03 0.00 74 1010.0
20260904151805 60 0 0.0 0.0 0.00 0.03 0.00 76 1010.3
20260904150904 60 0 0.0 0.0 0.00 0.03 0.00 76 1010.4
20260904150004 60 0 0.0 0.0 0.00 0.03 0.00 76 1010.3
20260904145405 60 0 0.0 0.0 0.00 0.03 0.00 76 1010.7
20260904144505 60 0 0.0 0.0 0.00 0.03 0.00 76 1010.8
20260904143604 60 0 0.0 0.0 0.00 0.03 0.00 77 1010.9
20260904142914 60 0 0.0 0.0 0.00 0.03 0.00 77 1010.6
20260904141803 60 0 0.0 0.0 0.00 0.03 0.00 77 1010.6
20260904140903 60 0 0.0 0.0 0.00 0.03 0.00 76 1010.8
20260904140215 60 0 0.0 0.0 0.00 0.03 0.00 77 1010.8
20260904135405 60 0 0.0 0.0 0.00 0.03 0.03 76 1011.1
20260904134503 61 0 0.0 0.0 0.00 0.03 0.03 78 1011.1
20260904133604 61 0 0.0 0.0 0.00 0.03 0.03 77 1011.2
20260904132916 61 0 0.0 0.0 0.00 0.03 0.03 76 1011.2
20260904131804 60 0 0.0 0.0 0.00 0.03 0.03 77 1011.2
20260904130903 60 0 0.0 0.0 0.01 0.03 0.03 78 1011.1
20260904130004 59 0 0.0 0.0 0.01 0.03 0.03 80 1011.5
20260904125408 58 0 0.0 0.0 0.01 0.03 0.03 82 1011.5
20260904124509 57 0 0.0 0.0 0.02 0.03 0.03 84 1011.6
20260904123604 57 0 0.0 0.0 0.02 0.03 0.03 84 1011.8
20260904122704 57 0 0.0 0.0 0.02 0.03 0.03 84 1012.0
20260904121813 57 0 0.0 0.0 0.02 0.03 0.03 84 1012.1
20260904120909 57 0 0.0 0.0 0.01 0.02 0.02 83 1012.3
20260904120009 57 0 0.0 0.0 0.01 0.02 0.02 83 1012.6
20260904115405 57 0 0.0 0.0 0.01 0.02 0.02 83 1012.8
20260904114504 57 0 0.0 0.0 0.00 0.02 0.02 83 1012.6
20260904113603 57 0 0.0 0.0 0.00 0.02 0.02 83 1013.2
20260904112704 56 0 0.0 0.0 0.00 0.02 0.02 83 1013.2
20260904111808 57 0 0.0 0.0 0.00 0.02 0.02 82 1013.1
20260904110908 57 0 0.0 0.0 0.01 0.02 0.02 82 1013.2
20260904110218 57 0 0.0 0.0 0.02 0.02 0.02 82 1013.4
20260904105623 57 0 0.0 0.0 0.02 0.02 0.02 82 1013.3
20260904104509 57 0 0.0 0.0 0.02 0.02 0.02 81 1013.4